Voltar ao catálogo

COSMOS 1818 COOLANT

LostLEO
NORAD 50784·DEBRIS·🇷🇺 Russia

Lançado Feb 1, 1987 de Baikonur Cosmodrome

Loading…

Próximas Passagens (próximas 24 horas)

TLE

ObsoletoSource: Space-Track

Época: Oct 19, 2022, 14:02 UTC

1 50784U 87011AZ  22292.58521041  .00000545  00000-0  22931-3 0  9998
2 50784  65.0199   2.1557 0012472 264.8554 164.9040 14.34319668527807

Acompanhe COSMOS 1818 COOLANT em tempo real com AllMySat

Download on the App Store